Showing default

AAC-AIS-SAT-1, 55107

Orbit data source: Space-Track

AAC-AIS-SAT-1, 55107 is a payload satellite owned by AAC ClydeSpace (UK) in SSO that was launched on Tue, 03 Jan 2023 UTC via an FALCON 9 launch vehicle from the Air Force Eastern Test Range (AFETR). Payload-class satellites include a variety of spacecraft equipped with specific instruments for various scientific and technological missions. These include communications satellites like Starlink; space stations such as the ISS; scientific satellites like the Hubble; Earth observation satellites from companies like Planet Labs, Umbra, and HawkEye 360; GPS; miniature CubeSats for education and research; and military/defense satellites.

Loading next visibility...
Identifier
55107, 2023-001DC
Orbit
SSO
Country
Flag of UKUK
Related business
Manufacturer
AAC ClydeSpace
Mission
Operational Commercial Communications
Bus & Motor
CUBESAT 3U, Unknown motor
Mass
4 kg wet, 4 kg dry
Launch date (UTC)
2023-01-03 (3 years ago)
Launch vehicle
FALCON 9
Launch site
Air Force Eastern Test Range (AFETR)
Object type
Payload
Rocket body
Debris
Shape & HBR
Box, 1.0 m
Radar Cross Section
0.035 m², Medium (>0.1 m² and < 1m²)

Expand to show TLE details & history
Last TLE update: 9 hours ago

TLE from 9 hours ago
0 AAC-AIS-SAT-1
1 55107U 23001DC  25286.96237601  .00007613  00000-0  81667-3 0  9999
2 55107  97.9461 357.6668 0009994  18.6177 341.5403 14.88871377141604
Epoch: 2025-10-13T23:05Z
TLE epoch observation values (Epoch: 2025-10-13T23:05:49.287Z)
Latitude
-0.00005°
Longitude
-11.54619°
Altitude
597.876 km
Speed
7.564 km/s
True Right ascension
23h 50m 40s
True Declination
0° 00' 00"
Sunlit
Object was in full shadow at epoch
Visualization orbit readout
Latitude
Unknown
Longitude
Unknown
Altitude
Unknown
Speed
Unknown
Apparent Right ascension
Unknown
Apparent Declination
Unknown
Sunlit
N/A
Visualization observer readout
Local Sidereal Time
02:54:08
Azimuth
Unknown
Elevation
Unknown
Doppler factor
Unknown
Orbital elements
Apogee altitude
605.464 km
Perigee altitude
591.519 km
Semi-major axis
6,976.629 km
Eccentricity
0.001
Inclination
97.9461°
RAAN
357.6668°
Arg. of periapsis
18.6177°
True anomaly
341.50399°
Mean anomaly
341.5403°
Eccentric anomaly
341.52215°
Mean motion
3.72456 °/min
Orbital period
96.66 mins
BSTAR
0.00081667
Loading maneuver chart data...
Computing Atmospheric mass density...
Loading historical data...
Loading historical data...
Loading historical data...
Loading historical data...
Loading historical data...
Loading historical data...
Loading historical data...

Documentation

Showing up to 5 results
|